UAE839 OMDB-OBBI

Flight info

Callsign UAE839
Flight time 0h 50m
Altitude 26000
Route NABIX P699 ORMID M556 ORDIG
Aircraft A359/H-SDE2E3GHIJ3J4J5LM1ORWXY/LB1D1

Departure

Time 2026-05-04 22:24
Airport Dubai International Airport (OMDB)

Arrival

Time 2026-05-04 23:14
Airport Bahrain International Airport (OBBI)
Time Latitude Longitude Altitude Speed Heading
2026-05-04 21:23 25.24968 55.36149 27 ft 0 kts 212°
2026-05-04 21:44 25.24968 55.36150 27 ft 0 kts 212°
2026-05-04 22:11 25.24976 55.36155 27 ft 4 kts 211°
2026-05-04 22:11 25.24999 55.36170 26 ft 4 kts 211°
2026-05-04 22:11 25.25023 55.36183 26 ft 4 kts 192°
2026-05-04 22:11 25.25049 55.36184 27 ft 4 kts 159°
2026-05-04 22:12 25.25067 55.36170 26 ft 1 kts 122°
2026-05-04 22:12 25.25067 55.36169 26 ft 1 kts 122°
2026-05-04 22:17 25.25055 55.36191 28 ft 7 kts 122°
2026-05-04 22:17 25.25044 55.36260 28 ft 11 kts 65°
2026-05-04 22:18 25.25078 55.36321 28 ft 6 kts 88°
2026-05-04 22:18 25.25054 55.36375 28 ft 14 kts 121°
2026-05-04 22:18 25.24977 55.36513 28 ft 25 kts 121°
2026-05-04 22:18 25.24886 55.36685 28 ft 27 kts 113°
2026-05-04 22:19 25.24834 55.36884 28 ft 27 kts 117°
2026-05-04 22:19 25.24735 55.37061 28 ft 27 kts 121°
2026-05-04 22:19 25.24644 55.37224 28 ft 23 kts 122°
2026-05-04 22:19 25.24556 55.37381 28 ft 25 kts 121°
2026-05-04 22:20 25.24461 55.37550 27 ft 27 kts 122°
2026-05-04 22:20 25.24361 55.37730 28 ft 28 kts 122°
2026-05-04 22:20 25.24254 55.37919 28 ft 30 kts 122°
2026-05-04 22:20 25.24213 55.37990 28 ft 1 kts 119°
2026-05-04 22:21 25.24207 55.38004 28 ft 5 kts 118°
2026-05-04 22:21 25.24202 55.38053 28 ft 4 kts 65°
2026-05-04 22:21 25.24236 55.38075 29 ft 11 kts 32°
2026-05-04 22:21 25.24334 55.38143 33 ft 21 kts 32°
2026-05-04 22:22 25.24465 55.38228 29 ft 23 kts 29°
2026-05-04 22:22 25.24605 55.38312 28 ft 17 kts
2026-05-04 22:22 25.24687 55.38239 29 ft 13 kts 303°
2026-05-04 22:22 25.24694 55.38228 29 ft 0 kts 302°
2026-05-04 22:23 25.24716 55.38188 30 ft 31 kts 302°
2026-05-04 22:23 25.24978 55.37724 32 ft 109 kts 301°
2026-05-04 22:23 25.25475 55.36788 30 ft 171 kts 302°
2026-05-04 22:24 25.26120 55.35645 668 ft 176 kts 299°
2026-05-04 22:24 25.26818 55.34417 1116 ft 204 kts 302°
2026-05-04 22:24 25.27634 55.32978 1283 ft 235 kts 302°
2026-05-04 22:24 25.28542 55.31385 1632 ft 244 kts 303°
2026-05-04 22:25 25.29362 55.29808 2551 ft 232 kts 295°
2026-05-04 22:25 25.29514 55.28048 3152 ft 236 kts 257°
2026-05-04 22:25 25.28803 55.26427 3682 ft 241 kts 239°
2026-05-04 22:25 25.27898 55.24814 4246 ft 245 kts 241°
2026-05-04 22:26 25.27065 55.23189 4769 ft 248 kts 243°
2026-05-04 22:26 25.26250 55.21468 5294 ft 252 kts 245°
2026-05-04 22:26 25.25464 55.19727 5808 ft 255 kts 246°
2026-05-04 22:26 25.24699 55.17980 6325 ft 258 kts 247°
2026-05-04 22:27 25.24056 55.16126 6833 ft 259 kts 259°
2026-05-04 22:27 25.23713 55.14127 7112 ft 272 kts 264°
2026-05-04 22:27 25.23433 55.12004 7380 ft 285 kts 264°
2026-05-04 22:27 25.23145 55.09803 7812 ft 292 kts 264°
2026-05-04 22:28 25.22846 55.07575 8304 ft 295 kts 263°
2026-05-04 22:28 25.22540 55.05314 8829 ft 298 kts 263°
2026-05-04 22:28 25.22230 55.03040 9343 ft 301 kts 263°
2026-05-04 22:28 25.21915 55.00742 9855 ft 303 kts 263°
2026-05-04 22:29 25.21597 54.98429 10289 ft 308 kts 263°
2026-05-04 22:29 25.21270 54.96044 10522 ft 320 kts 263°
2026-05-04 22:29 25.20943 54.93569 10710 ft 331 kts 265°
2026-05-04 22:29 25.20747 54.91029 10913 ft 341 kts 268°
2026-05-04 22:30 25.20590 54.88378 11114 ft 350 kts 268°
2026-05-04 22:30 25.20418 54.85668 11422 ft 355 kts 267°
2026-05-04 22:30 25.20234 54.82938 11803 ft 358 kts 267°
2026-05-04 22:30 25.20042 54.80193 12213 ft 359 kts 266°
2026-05-04 22:31 25.19855 54.77444 12612 ft 359 kts 268°
2026-05-04 22:31 25.19874 54.74687 12987 ft 360 kts 274°
2026-05-04 22:31 25.20029 54.71920 13367 ft 361 kts 274°
2026-05-04 22:31 25.20199 54.69150 13731 ft 363 kts 274°
2026-05-04 22:32 25.20366 54.66363 14067 ft 364 kts 274°
2026-05-04 22:32 25.20531 54.63573 14412 ft 365 kts 274°
2026-05-04 22:32 25.20694 54.60776 14760 ft 366 kts 274°
2026-05-04 22:32 25.20857 54.57966 15111 ft 367 kts 274°
2026-05-04 22:33 25.21019 54.55154 15460 ft 368 kts 274°
2026-05-04 22:33 25.21322 54.52354 15808 ft 369 kts 280°
2026-05-04 22:33 25.21868 54.49585 16158 ft 370 kts 283°
2026-05-04 22:33 25.22538 54.46832 16517 ft 371 kts 285°
2026-05-04 22:34 25.23260 54.44103 16848 ft 373 kts 285°
2026-05-04 22:34 25.23999 54.41357 17197 ft 374 kts 285°
2026-05-04 22:34 25.24732 54.38599 17564 ft 375 kts 285°
2026-05-04 22:34 25.25453 54.35832 17905 ft 376 kts 285°
2026-05-04 22:35 25.26158 54.33081 18224 ft 377 kts 284°
2026-05-04 22:35 25.26865 54.30283 18514 ft 379 kts 284°
2026-05-04 22:35 25.27572 54.27469 18803 ft 381 kts 284°
2026-05-04 22:35 25.28272 54.24638 19092 ft 382 kts 284°
2026-05-04 22:36 25.28961 54.21802 19371 ft 383 kts 284°
2026-05-04 22:36 25.29666 54.18951 19642 ft 385 kts 284°
2026-05-04 22:36 25.30374 54.16102 19924 ft 386 kts 284°
2026-05-04 22:36 25.31086 54.13222 20220 ft 388 kts 284°
2026-05-04 22:37 25.31771 54.10334 20504 ft 389 kts 283°
2026-05-04 22:37 25.32397 54.07419 20782 ft 390 kts 282°
2026-05-04 22:37 25.32997 54.04484 21057 ft 392 kts 282°
2026-05-04 22:37 25.33593 54.01538 21341 ft 393 kts 282°
2026-05-04 22:38 25.34187 53.98622 21609 ft 395 kts 282°
2026-05-04 22:38 25.34800 53.95653 21857 ft 397 kts 282°
2026-05-04 22:38 25.35430 53.92632 22137 ft 398 kts 282°
2026-05-04 22:38 25.36058 53.89646 22411 ft 400 kts 282°
2026-05-04 22:39 25.36690 53.86644 22695 ft 401 kts 282°
2026-05-04 22:39 25.37318 53.83676 22998 ft 402 kts 282°
2026-05-04 22:39 25.37948 53.80699 23598 ft 393 kts 282°
2026-05-04 22:39 25.38560 53.77801 24252 ft 381 kts 282°
2026-05-04 22:40 25.39152 53.74987 24922 ft 370 kts 282°
2026-05-04 22:40 25.39725 53.72257 25440 ft 362 kts 281°
2026-05-04 22:40 25.40294 53.69539 25695 ft 366 kts 281°
2026-05-04 22:40 25.40877 53.66735 25740 ft 383 kts 281°
2026-05-04 22:41 25.41481 53.63830 25736 ft 389 kts 281°
2026-05-04 22:41 25.42089 53.60915 25739 ft 389 kts 281°
2026-05-04 22:41 25.42698 53.58001 25738 ft 389 kts 281°
2026-05-04 22:41 25.43310 53.55091 25735 ft 389 kts 281°
2026-05-04 22:42 25.43919 53.52177 25736 ft 389 kts 281°
2026-05-04 22:42 25.44524 53.49263 25738 ft 388 kts 281°
2026-05-04 22:42 25.45128 53.46351 25735 ft 388 kts 281°
2026-05-04 22:42 25.45732 53.43438 25734 ft 389 kts 281°
2026-05-04 22:43 25.46336 53.40520 25738 ft 388 kts 281°
2026-05-04 22:43 25.46939 53.37606 25742 ft 388 kts 281°
2026-05-04 22:43 25.47542 53.34696 25736 ft 387 kts 281°
2026-05-04 22:43 25.48142 53.31792 25739 ft 387 kts 281°
2026-05-04 22:44 25.48735 53.28920 25741 ft 387 kts 281°
2026-05-04 22:44 25.49333 53.26019 25736 ft 387 kts 281°
2026-05-04 22:44 25.49933 53.23116 25737 ft 387 kts 281°
2026-05-04 22:44 25.50533 53.20215 25738 ft 388 kts 281°
2026-05-04 22:45 25.51132 53.17298 25737 ft 388 kts 281°
2026-05-04 22:45 25.52320 53.11480 25742 ft 388 kts 281°
2026-05-04 22:45 25.52915 53.08565 25734 ft 388 kts 281°
2026-05-04 22:46 25.53508 53.05656 25738 ft 388 kts 281°
2026-05-04 22:46 25.54104 53.02736 25738 ft 388 kts 281°
2026-05-04 22:46 25.54697 52.99826 25735 ft 388 kts 281°
2026-05-04 22:46 25.55291 52.96909 25739 ft 388 kts 281°
2026-05-04 22:47 25.55885 52.93992 25740 ft 388 kts 281°
2026-05-04 22:47 25.56658 52.91124 25741 ft 390 kts 289°
2026-05-04 22:47 25.57787 52.88381 25746 ft 392 kts 293°
2026-05-04 22:47 25.59022 52.85690 25740 ft 391 kts 295°
2026-05-04 22:48 25.60303 52.83032 25742 ft 391 kts 295°
2026-05-04 22:48 25.61600 52.80398 25741 ft 391 kts 296°
2026-05-04 22:48 25.62913 52.77746 25740 ft 391 kts 296°
2026-05-04 22:48 25.64216 52.75109 25742 ft 391 kts 296°
2026-05-04 22:49 25.65516 52.72463 25743 ft 391 kts 295°
2026-05-04 22:49 25.66797 52.69844 25743 ft 391 kts 295°
2026-05-04 22:49 25.68108 52.67154 25745 ft 391 kts 295°
2026-05-04 22:49 25.69400 52.64497 25746 ft 391 kts 295°
2026-05-04 22:50 25.70689 52.61842 25741 ft 391 kts 295°
2026-05-04 22:50 25.71961 52.59221 25741 ft 391 kts 295°
2026-05-04 22:50 25.73266 52.56532 25742 ft 391 kts 295°
2026-05-04 22:50 25.74537 52.53909 25741 ft 391 kts 295°
2026-05-04 22:51 25.75826 52.51251 25740 ft 391 kts 295°
2026-05-04 22:51 25.77108 52.48594 25742 ft 391 kts 295°
2026-05-04 22:51 25.78366 52.45917 25745 ft 391 kts 294°
2026-05-04 22:51 25.79605 52.43234 25744 ft 390 kts 294°
2026-05-04 22:52 25.80837 52.40553 25743 ft 390 kts 294°
2026-05-04 22:52 25.82071 52.37870 25742 ft 390 kts 294°
2026-05-04 22:52 25.83310 52.35184 25738 ft 390 kts 294°
2026-05-04 22:52 25.84548 52.32507 25742 ft 390 kts 294°
2026-05-04 22:53 25.85791 52.29824 25737 ft 390 kts 294°
2026-05-04 22:53 25.87205 52.27240 25740 ft 394 kts 303°
2026-05-04 22:53 25.88927 52.24868 25744 ft 394 kts 307°
2026-05-04 22:53 25.90735 52.22572 25743 ft 395 kts 308°
2026-05-04 22:54 25.92573 52.20331 25744 ft 395 kts 309°
2026-05-04 22:54 25.94442 52.18095 25746 ft 395 kts 309°
2026-05-04 22:54 25.96315 52.15863 25744 ft 395 kts 309°
2026-05-04 22:54 25.98191 52.13622 25744 ft 395 kts 309°
2026-05-04 22:55 26.00056 52.11384 25741 ft 395 kts 309°
2026-05-04 22:55 26.01918 52.09141 25741 ft 395 kts 309°
2026-05-04 22:55 26.03774 52.06898 25740 ft 395 kts 309°
2026-05-04 22:55 26.05638 52.04643 25750 ft 395 kts 309°
2026-05-04 22:56 26.07516 52.02370 25646 ft 407 kts 309°
2026-05-04 22:56 26.09450 52.00018 25511 ft 415 kts 309°
2026-05-04 22:56 26.11400 51.97649 24849 ft 416 kts 309°
2026-05-04 22:56 26.13354 51.95277 24171 ft 417 kts 310°
2026-05-04 22:57 26.15311 51.92904 23575 ft 416 kts 310°
2026-05-04 22:57 26.17266 51.90534 22922 ft 414 kts 310°
2026-05-04 22:57 26.19206 51.88182 22317 ft 411 kts 310°
2026-05-04 22:57 26.21135 51.85842 21713 ft 407 kts 310°
2026-05-04 22:58 26.23018 51.83556 21118 ft 403 kts 310°
2026-05-04 22:58 26.24774 51.81150 20556 ft 397 kts 301°
2026-05-04 22:58 26.26196 51.78535 19954 ft 393 kts 297°
2026-05-04 22:58 26.27493 51.75866 19356 ft 390 kts 295°
2026-05-04 22:59 26.28309 51.74088 18973 ft 388 kts 294°
2026-05-04 22:59 26.29504 51.71392 18379 ft 386 kts 294°
2026-05-04 22:59 26.31070 51.67800 17532 ft 384 kts 294°
2026-05-04 22:59 26.31839 51.66036 17101 ft 382 kts 294°
2026-05-04 23:00 26.33392 51.62504 16326 ft 377 kts 295°
2026-05-04 23:00 26.34157 51.60771 15913 ft 375 kts 295°
2026-05-04 23:00 26.35304 51.58176 15308 ft 372 kts 296°
2026-05-04 23:00 26.36447 51.55604 14713 ft 368 kts 296°
2026-05-04 23:01 26.37542 51.53029 14079 ft 366 kts 292°
2026-05-04 23:01 26.38479 51.50408 13626 ft 360 kts 292°
2026-05-04 23:01 26.39349 51.47815 13190 ft 356 kts 291°
2026-05-04 23:01 26.40202 51.45177 12969 ft 365 kts 291°
2026-05-04 23:02 26.41045 51.42525 12327 ft 362 kts 291°
2026-05-04 23:02 26.41889 51.39854 11537 ft 364 kts 291°
2026-05-04 23:02 26.42700 51.37283 11387 ft 347 kts 291°
2026-05-04 23:02 26.43485 51.34808 11259 ft 329 kts 291°
2026-05-04 23:03 26.44230 51.32460 11150 ft 313 kts 291°
2026-05-04 23:03 26.44939 51.30225 11016 ft 298 kts 292°
2026-05-04 23:03 26.45378 51.28016 10891 ft 288 kts 278°
2026-05-04 23:03 26.45197 51.25811 10533 ft 291 kts 258°
2026-05-04 23:04 26.44349 51.23752 10152 ft 294 kts 245°
2026-05-04 23:04 26.43290 51.21805 9776 ft 293 kts 243°
2026-05-04 23:04 26.42205 51.19875 9377 ft 295 kts 243°
2026-05-04 23:04 26.41117 51.17942 9004 ft 294 kts 243°
2026-05-04 23:05 26.40029 51.16009 8635 ft 294 kts 243°
2026-05-04 23:05 26.38943 51.14081 8261 ft 293 kts 242°
2026-05-04 23:05 26.37863 51.12161 7904 ft 292 kts 242°
2026-05-04 23:05 26.36788 51.10251 7534 ft 291 kts 242°
2026-05-04 23:06 26.35715 51.08344 7182 ft 290 kts 242°
2026-05-04 23:06 26.34643 51.06439 6813 ft 289 kts 242°
2026-05-04 23:06 26.33576 51.04543 6464 ft 288 kts 242°
2026-05-04 23:06 26.32512 51.02656 6077 ft 287 kts 242°
2026-05-04 23:07 26.31464 51.00796 5726 ft 286 kts 242°
2026-05-04 23:07 26.30392 50.98893 5377 ft 286 kts 241°
2026-05-04 23:07 26.29338 50.97024 5035 ft 285 kts 241°
2026-05-04 23:07 26.28286 50.95160 4694 ft 284 kts 241°
2026-05-04 23:08 26.27250 50.93324 4346 ft 283 kts 241°
2026-05-04 23:08 26.26204 50.91473 4004 ft 282 kts 241°
2026-05-04 23:08 26.25159 50.89624 3679 ft 281 kts 241°
2026-05-04 23:08 26.24120 50.87785 3341 ft 280 kts 241°
2026-05-04 23:09 26.23084 50.85950 3012 ft 280 kts 240°
2026-05-04 23:09 26.22058 50.84137 2815 ft 271 kts 240°
2026-05-04 23:09 26.21077 50.82410 2703 ft 256 kts 240°
2026-05-04 23:09 26.20168 50.80810 2591 ft 233 kts 240°
2026-05-04 23:10 26.19367 50.79313 2470 ft 218 kts 248°
2026-05-04 23:10 26.19083 50.77759 2376 ft 196 kts 280°
2026-05-04 23:10 26.19517 50.76448 2338 ft 171 kts 310°
2026-05-04 23:10 26.20216 50.75434 2155 ft 163 kts 310°
2026-05-04 23:11 26.20791 50.74372 1926 ft 156 kts 303°
2026-05-04 23:11 26.21350 50.73364 1725 ft 152 kts 309°
2026-05-04 23:11 26.21928 50.72379 1543 ft 152 kts 308°
2026-05-04 23:11 26.22490 50.71390 1349 ft 151 kts 308°
2026-05-04 23:12 26.23049 50.70412 1153 ft 151 kts 307°
2026-05-04 23:12 26.23615 50.69424 963 ft 151 kts 306°
2026-05-04 23:12 26.24178 50.68440 787 ft 151 kts 307°
2026-05-04 23:12 26.24744 50.67449 598 ft 151 kts 305°
2026-05-04 23:13 26.25305 50.66469 415 ft 154 kts 304°
2026-05-04 23:13 26.25874 50.65473 223 ft 152 kts 303°
2026-05-04 23:13 26.26427 50.64507 31 ft 144 kts 302°
2026-05-04 23:13 26.26884 50.63711 25 ft 85 kts 302°
2026-05-04 23:14 26.27043 50.63437 23 ft 1 kts 303°
2026-05-04 23:14 26.27102 50.63335 22 ft 26 kts 303°
2026-05-04 23:14 26.27208 50.63148 25 ft 31 kts 298°
2026-05-04 23:14 26.27257 50.62941 25 ft 24 kts 271°
2026-05-04 23:15 26.27263 50.62755 27 ft 25 kts 274°
2026-05-04 23:15 26.27214 50.62640 30 ft 10 kts 191°
2026-05-04 23:15 26.27194 50.62644 29 ft 0 kts 157°
2026-05-04 23:16 26.27156 50.62676 31 ft 13 kts 129°
2026-05-04 23:17 26.27090 50.62787 27 ft 19 kts 122°
2026-05-04 23:17 26.27017 50.62915 28 ft 21 kts 122°
2026-05-04 23:17 26.26949 50.63034 28 ft 13 kts 122°
2026-05-04 23:17 26.26909 50.63102 27 ft 11 kts 122°
2026-05-04 23:18 26.26895 50.63116 27 ft 0 kts 152°
2026-05-04 23:18 26.26889 50.63116 27 ft 3 kts 170°
2026-05-04 23:19 26.26847 50.63105 27 ft 6 kts 206°
2026-05-04 23:19 26.26815 50.63081 27 ft 0 kts 214°